Date,TemperatureHighF,TemperatureAvgF,TemperatureLowF,DewpointHighF,DewpointAvgF,DewpointLowF,HumidityHigh,HumidityAvg,HumidityLow,PressureMaxIn,PressureMinIn,WindSpeedMaxMPH,WindSpeedAvgMPH,GustSpeedMaxMPH,PrecipitationSumIn
2013-1-1,49.8,47.5,46.0,41.7,25.3,11.9,84,44,24,30.12,29.94,6,3,6,0.16
2013-1-2,46.2,40.1,37.0,42.0,25.8,15.6,85,58,34,30.24,29.97,6,2,6,0.28
2013-1-3,42.4,36.0,26.6,19.2,9.9,4.5,57,35,23,30.30,30.21,7,1,7,0.00
2013-1-4,48.6,35.4,24.3,26.1,13.6,7.6,78,45,21,30.30,30.15,8,1,230,0.00
2013-1-5,52.3,39.0,28.9,20.7,12.0,7.0,48,34,21,30.42,30.24,6,1,6,0.00
2013-1-6,51.8,44.4,38.5,28.3,23.4,19.1,64,44,28,30.30,30.09,7,1,7,0.00
2013-1-7,49.6,40.1,29.7,31.6,17.2,9.0,77,43,21,30.47,30.15,10,2,10,0.00
2013-1-8,61.9,42.3,27.1,35.3,24.3,15.7,77,53,25,30.50,30.42,6,0,6,0.00
2013-1-9,70.0,51.8,36.9,45.3,33.2,28.5,85,55,22,30.45,30.33,8,1,8,0.00
2013-1-10,53.8,51.6,48.9,43.6,36.2,34.3,78,56,49,30.45,30.39,4,0,4,0.00
2013-1-16,52.0,49.3,46.4,50.0,46.0,40.2,93,88,79,30.03,30.00,6,0,6,0.00
2013-1-17,48.7,44.4,35.1,47.2,39.3,29.5,95,83,65,30.12,30.00,11,3,11,1.06
2013-1-18,44.1,36.8,26.6,34.1,17.3,7.4,91,49,23,30.59,30.06,10,2,10,0.12
2013-1-19,58.6,37.3,23.7,26.8,16.8,9.7,75,48,19,30.59,30.15,4,0,4,0.00
2013-1-20,64.0,51.0,39.0,29.0,18.6,8.6,60,31,16,30.15,29.94,15,3,15,0.00
2013-1-21,59.9,46.3,31.1,21.7,14.9,6.6,53,29,19,30.12,29.83,11,1,11,0.00
2013-1-22,45.3,33.8,23.4,14.0,0.5,-9.9,34,24,20,30.30,29.91,11,2,11,0.00
2013-1-23,36.9,28.8,20.7,1.6,-4.9,-11.1,32,23,19,30.39,30.15,9,1,9,0.00
2013-1-24,35.4,29.7,24.3,12.9,-1.8,-9.3,43,26,21,30.56,29.97,13,3,13,0.00
2013-1-25,33.6,26.9,19.9,16.8,1.7,-10.3,64,36,22,30.56,30.12,4,1,4,0.00
2013-1-26,40.1,29.5,21.6,22.3,14.6,10.6,74,55,31,30.45,30.12,8,1,8,0.08
2013-1-27,40.6,33.0,27.5,21.0,6.4,1.0,64,34,21,30.62,30.45,8,1,8,0.00
2013-1-28,51.4,39.8,27.1,32.1,20.8,7.8,54,47,33,30.56,30.21,10,2,11,0.00
2013-1-29,74.3,57.4,48.2,44.3,36.3,30.1,78,49,21,30.21,30.09,11,2,11,0.00
2013-1-30,75.6,66.8,55.0,57.4,46.4,36.8,89,51,25,30.12,29.50,20,4,20,0.00
2013-1-31,69.4,52.4,37.2,54.1,18.9,1.0,65,28,17,30.03,29.35,18,6,18,0.20
2013-2-1,43.3,35.6,25.2,12.6,2.5,-9.3,36,24,19,30.42,29.88,17,3,17,0.00
2013-2-2,44.2,33.1,21.9,5.7,-0.7,-9.4,32,23,20,30.45,30.06,10,1,10,0.00
2013-2-3,46.2,39.2,33.6,25.9,14.5,3.6,70,38,22,30.06,29.85,8,1,8,0.00
2013-2-4,48.9,38.1,26.2,11.3,6.1,2.5,44,27,19,30.18,29.97,8,1,8,0.00
2013-2-5,61.9,47.9,39.4,19.0,14.3,10.5,37,27,16,30.03,29.85,10,2,10,0.00
2013-2-6,53.8,43.6,34.9,27.8,19.6,15.0,70,40,23,30.36,29.97,9,1,9,0.00
2013-2-7,50.5,43.5,34.3,30.9,20.8,14.5,80,42,27,30.42,30.27,14,3,14,0.00
2013-2-8,53.4,48.1,43.3,43.0,29.5,12.8,88,51,28,29.91,29.65,17,4,17,0.20
2013-2-9,48.2,41.0,32.5,13.2,7.4,3.6,37,25,19,30.39,29.91,13,3,15,0.00
2013-2-10,53.1,40.5,25.2,27.0,12.1,1.0,54,33,18,30.53,30.33,8,1,8,0.00
2013-2-11,63.5,57.2,43.3,54.6,45.9,22.0,88,67,40,30.33,29.85,13,3,13,0.04
2013-2-12,64.0,55.4,48.6,40.8,18.5,11.5,48,24,16,30.06,29.85,12,2,12,0.00
2013-2-13,53.1,49.1,47.1,43.6,35.5,23.6,85,61,37,29.97,29.62,6,1,8,0.12
2013-2-14,47.3,43.9,42.6,38.7,29.4,23.3,72,57,46,29.85,29.77,11,3,11,0.00
2013-3-2,45.3,40.6,35.1,10.9,7.1,4.5,30,25,22,29.91,29.83,8,2,9,0.00
2013-3-3,45.5,37.1,31.5,12.3,5.0,1.5,42,26,20,29.94,29.88,12,2,12,0.00
2013-3-4,50.0,38.2,28.8,10.4,3.5,-0.9,43,23,19,30.06,29.94,13,3,13,0.00
2013-3-5,56.8,39.9,24.4,37.9,12.7,2.6,81,36,17,30.12,29.94,9,2,10,0.08
2013-3-6,49.3,42.5,39.2,46.9,31.0,19.7,93,65,38,29.94,29.41,17,6,17,0.87
2013-3-7,53.8,45.5,41.0,21.5,13.2,8.8,45,27,18,30.15,29.85,15,4,15,0.00
2013-3-8,50.5,44.2,37.8,14.6,10.8,7.9,33,26,21,30.21,30.09,16,4,16,0.00
2013-3-9,58.6,46.5,32.9,14.8,11.0,4.5,39,24,17,30.33,30.21,10,2,10,0.00
2013-3-10,63.9,45.7,27.3,35.6,19.7,0.0,77,40,16,30.36,30.30,8,2,8,0.00
2013-3-11,70.9,54.3,36.1,47.7,32.1,26.9,86,49,22,30.33,30.06,12,2,12,0.00
2013-3-12,70.7,61.0,50.0,58.5,45.6,26.0,85,58,37,30.06,29.74,13,3,13,0.55
2013-3-13,50.0,48.0,45.5,28.4,22.6,17.5,44,37,30,29.97,29.91,8,4,8,0.00
2013-3-15,62.1,54.3,26.8,15.6,12.9,6.4,49,20,16,30.18,29.88,10,3,11,0.00
2013-3-16,74.3,55.9,46.9,39.3,24.3,11.3,59,30,18,29.91,29.71,5,3,5,0.08
2013-4-11,88.7,77.7,63.7,47.0,37.9,28.0,51,26,13,30.00,29.83,13,4,14,0.08
2013-4-12,82.0,72.3,69.4,65.3,55.4,46.5,75,57,30,29.85,29.65,12,3,12,0.55
2013-4-13,71.4,61.0,53.4,59.9,30.8,20.3,71,35,17,30.00,29.68,15,3,15,0.00
2013-4-14,77.7,61.2,45.9,41.3,28.6,15.8,67,34,14,30.18,30.00,6,1,6,0.00
2013-4-15,69.3,61.2,57.4,40.2,33.9,26.3,44,36,29,30.21,30.15,7,1,7,0.00
2013-4-19,80.4,74.4,66.9,58.0,48.1,44.8,73,41,30,29.88,29.80,26,10,26,0.31
2013-4-20,66.7,58.6,48.4,62.1,34.4,14.3,85,45,16,30.30,29.83,14,3,14,0.51
2013-4-21,58.1,50.3,42.1,41.5,21.1,13.4,83,34,20,30.59,30.30,17,6,17,0.00
2013-4-22,56.3,50.0,43.7,45.3,34.2,17.7,82,56,34,30.56,30.30,25,9,25,0.12
2013-4-23,59.0,52.2,44.1,48.4,39.2,29.8,91,64,35,30.30,30.18,18,6,18,0.00
2013-4-24,79.2,63.0,41.0,49.3,38.6,30.1,90,48,18,30.21,29.97,18,5,18,0.00
2013-4-25,65.7,64.1,63.0,49.0,46.8,45.3,60,54,48,30.03,30.00,11,6,11,0.00
2013-4-28,69.6,62.1,58.3,52.9,37.0,24.4,78,44,20,30.27,30.18,13,3,13,0.00
2013-4-29,68.0,62.2,58.8,59.6,56.0,52.9,88,80,67,30.18,30.03,9,2,9,1.30
2013-4-30,70.2,61.6,58.8,59.2,53.0,38.2,97,77,33,30.18,30.06,12,4,12,0.00
2013-5-1,64.8,59.5,56.1,57.6,47.9,37.1,95,67,37,30.39,30.18,17,7,17,0.16
2013-5-2,68.0,60.0,54.0,48.7,37.8,29.0,76,47,25,30.42,30.33,15,6,15,0.16
2013-5-3,65.7,58.5,52.2,52.5,36.5,19.3,94,50,18,30.36,30.27,22,7,22,0.16
2013-5-11,81.7,73.5,69.1,62.5,54.0,38.7,79,54,22,29.83,29.80,14,4,14,0.20
2013-5-12,78.1,67.3,55.4,63.2,43.5,26.5,81,48,18,30.03,29.77,9,2,9,0.16
2013-5-13,69.1,60.0,49.1,39.1,20.5,10.6,56,23,15,30.18,30.03,12,2,12,0.00
2013-5-14,72.1,60.3,41.5,31.6,20.7,10.4,52,23,14,30.27,30.15,13,3,13,0.04
2013-5-15,60.3,59.3,58.1,32.2,29.0,26.2,37,32,27,30.15,30.09,11,5,11,0.00
2013-5-23,81.3,75.2,71.2,63.8,56.7,49.2,75,54,35,29.88,29.83,12,3,12,0.00
2013-5-24,77.7,65.4,54.9,63.5,44.4,19.7,81,50,24,30.15,29.80,16,4,16,0.28
2013-5-25,71.4,59.8,48.4,28.0,19.9,16.0,39,22,14,30.24,30.12,19,6,19,0.04
2013-5-26,79.3,63.0,44.6,36.7,27.9,18.9,59,31,14,30.27,30.18,13,3,13,0.00
2013-5-27,85.3,67.5,48.0,43.5,31.4,24.4,65,31,13,30.33,30.21,10,3,10,0.00
2013-5-28,89.8,76.4,61.0,51.2,40.5,32.9,63,31,15,30.30,30.15,15,6,15,0.00
2013-5-29,93.7,80.0,66.9,56.6,44.1,34.5,69,33,14,30.24,30.18,13,6,13,0.00
2013-5-30,95.2,81.0,66.9,57.4,44.8,31.7,69,33,12,30.30,30.18,11,4,11,0.00
2013-5-31,95.9,82.4,69.8,64.0,48.7,35.6,78,38,14,30.27,30.12,12,4,12,0.00
2013-6-1,95.7,84.4,70.7,61.7,47.1,35.6,72,32,14,30.15,30.03,13,6,13,0.00
2013-6-2,93.9,82.4,70.5,60.4,45.0,35.6,69,31,14,30.06,29.91,15,6,15,0.00
2013-6-3,81.1,75.8,72.0,65.6,59.7,46.5,80,59,35,29.97,29.85,14,5,14,0.08
2013-6-4,72.1,71.6,71.4,65.1,64.6,64.0,80,79,77,29.94,29.94,6,1,6,0.00
2013-6-5,81.5,69.8,61.2,43.1,33.7,24.4,50,30,14,30.15,30.15,10,2,10,0.00
2013-6-6,85.3,72.9,58.3,63.4,46.7,36.0,90,44,18,30.15,30.15,13,4,13,0.12
2013-6-7,87.3,76.8,71.4,72.5,63.6,50.2,94,68,29,30.15,30.15,25,6,25,0.79
2013-6-8,89.8,78.3,70.5,66.4,54.7,42.7,79,49,23,30.15,29.94,13,4,231,0.00
2013-6-9,88.7,77.4,66.4,69.5,55.0,41.2,79,51,20,30.21,30.12,11,3,11,0.00
2013-6-10,90.5,78.6,70.9,73.0,60.9,45.9,95,59,22,30.15,29.94,23,5,26,2.01
2013-6-11,73.0,72.4,71.2,66.7,65.0,63.5,82,78,72,29.97,29.91,20,5,20,0.00
2013-6-27,95.9,90.7,80.2,52.7,46.5,43.1,34,23,17,29.85,29.71,22,7,22,0.00
2013-6-28,97.7,95.8,86.7,50.1,44.1,38.0,28,18,13,29.62,29.59,14,7,14,0.00
2013-6-30,84.9,81.6,78.6,66.3,58.6,52.5,66,46,34,29.85,29.85,13,5,13,0.00
2013-7-1,80.2,78.1,76.6,67.1,64.2,59.9,72,63,52,30.06,30.00,12,5,12,0.00
2013-7-2,76.6,75.4,75.0,66.9,66.7,66.6,75,74,72,30.15,30.15,6,4,8,0.00
2013-7-13,92.3,91.4,89.8,53.3,48.7,44.9,28,23,20,30.21,30.18,15,7,15,0.00
2013-7-14,93.0,91.5,90.5,48.3,47.3,42.0,23,22,18,30.36,30.21,8,2,8,0.00
2013-8-3,94.1,93.4,92.1,47.2,43.9,42.0,21,18,17,30.00,30.00,10,6,10,0.00
2013-9-1,94.1,83.1,75.9,67.8,53.9,41.5,76,41,17,29.91,29.83,14,4,14,0.20
2013-9-2,93.2,84.5,74.8,66.4,51.0,40.7,74,36,17,29.88,29.83,11,5,11,0.04
2013-9-3,93.6,75.7,71.8,69.5,61.6,41.5,80,67,17,29.91,29.83,10,1,10,0.00
2013-9-4,84.9,75.7,66.2,65.1,47.3,38.8,78,40,20,30.12,29.88,10,2,10,1.14
2013-9-5,92.8,81.3,65.1,61.7,43.3,30.5,74,31,12,30.12,30.03,8,2,8,0.00
2013-9-6,82.9,75.3,65.1,47.7,31.8,24.9,39,21,15,30.21,30.06,11,4,11,0.00
2013-9-7,84.4,74.6,64.8,40.2,33.7,27.0,40,24,13,30.18,30.00,5,3,5,0.00
2013-9-8,91.9,75.5,61.7,49.7,40.3,29.8,61,33,12,30.00,29.91,8,2,8,0.00
2013-10-26,64.4,58.7,50.2,17.1,13.7,9.5,19,17,15,30.30,30.09,17,5,17,3.62
2013-10-27,69.3,56.3,41.0,27.0,19.5,9.5,47,26,15,30.18,30.06,10,2,10,0.00
2013-10-28,68.9,57.0,41.2,30.4,25.3,20.1,60,34,17,30.27,30.18,11,1,11,0.00
2013-10-29,70.3,63.2,55.6,50.2,27.3,16.6,74,31,14,30.36,30.27,9,2,9,0.00
2013-10-30,75.4,68.7,51.8,48.4,29.8,22.6,66,27,15,30.33,30.21,8,3,8,0.00
2013-10-31,77.9,71.2,57.9,46.5,37.4,26.1,63,34,15,30.24,30.03,10,6,10,0.00
2013-11-1,79.7,72.2,68.9,63.4,49.1,32.9,80,48,20,30.03,29.71,18,6,18,0.24
2013-11-2,70.0,62.9,59.4,62.1,27.5,17.1,76,27,17,29.74,29.71,11,3,11,0.00
2013-11-3,59.7,55.3,49.6,19.0,14.0,10.2,29,19,17,30.12,29.74,13,4,13,0.04
2013-11-6,68.0,63.8,61.9,48.7,43.6,29.3,61,48,24,30.27,30.15,6,0,6,0.04
2013-11-7,70.5,63.8,52.0,60.5,45.1,13.5,81,55,20,30.15,29.88,14,2,14,0.63
2013-11-8,57.6,48.4,37.8,21.4,11.5,4.5,51,24,17,30.36,29.97,15,3,15,0.04
2013-11-9,61.2,46.8,34.3,38.6,18.6,9.8,72,37,16,30.42,30.18,11,2,11,0.04
2013-11-10,55.9,45.5,42.4,24.2,16.4,10.9,42,31,17,30.18,30.12,10,3,10,0.00
2013-11-24,32.7,31.9,30.9,-3.9,-4.6,-5.4,20,20,20,30.53,30.39,20,7,21,0.00
2013-11-25,44.6,36.9,26.6,6.0,0.0,-8.1,22,20,19,30.65,30.50,9,3,9,0.00
2013-11-28,41.7,35.3,30.0,9.7,2.1,-1.0,42,25,21,30.53,30.39,11,3,11,0.00
2013-11-29,46.6,34.2,27.0,16.1,10.8,2.0,63,43,19,30.68,30.53,10,1,10,0.00
2013-11-30,48.7,42.5,39.2,30.4,21.0,2.6,62,43,21,30.68,30.50,12,4,12,0.00
2013-12-1,59.2,44.7,37.9,33.5,24.3,13.1,67,47,17,30.50,30.09,5,0,6,0.00
2013-12-2,58.8,50.8,32.5,43.2,22.5,12.1,82,40,17,30.09,29.85,8,2,8,0.00
2013-12-3,59.7,36.0,34.0,29.6,26.1,14.9,71,68,17,29.97,29.88,0,0,0,0.00
2013-12-4,64.4,61.4,59.9,42.4,40.4,36.7,52,46,36,30.09,30.06,5,0,5,0.00
2013-12-5,70.0,65.5,57.4,56.7,45.0,34.3,82,51,27,30.18,30.09,10,5,10,0.04
2013-12-6,79.5,73.5,65.5,48.3,39.9,30.4,52,32,17,30.12,29.97,13,8,15,0.00
2013-12-7,71.1,44.6,43.9,45.5,21.1,13.2,73,41,28,30.50,30.00,20,8,20,0.75
2013-12-8,44.1,40.4,38.5,37.9,32.6,13.9,81,74,29,30.53,30.36,15,7,15,0.71
2013-12-9,48.2,45.9,40.1,42.7,39.6,35.5,84,78,76,30.36,30.12,6,3,6,0.16
2013-12-10,48.2,43.0,41.0,42.7,34.7,30.9,82,72,67,30.12,29.94,12,7,15,1.06
2013-12-15,0.0,0.0,0.0,0.0,0.0,0.0,0,0,100,29.83,29.80,11,4,11,1.02
2013-12-29,0.0,0.0,0.0,0.0,0.0,0.0,0,0,100,29.94,29.62,25,8,25,0.55
2013-12-30,0.0,0.0,0.0,0.0,0.0,0.0,0,0,100,30.18,29.91,14,4,14,0.00
2013-12-31,0.0,0.0,0.0,0.0,0.0,0.0,0,0,100,30.33,30.21,10,3,10,0.00
2014-1-1,0.0,0.0,0.0,0.0,0.0,0.0,0,0,100,30.47,30.27,9,1,9,0.00
2014-1-2,0.0,0.0,0.0,0.0,0.0,0.0,0,0,100,30.27,29.56,9,1,9,0.59